[[{"header":{"parameterUnit":"m.s-1","parameterCategory":1,"la1":30.2991,"la2":30.254,"lo1":-89.0895,"lo2":-89.0444,"dy":0.0017,"dx":0.0017,"nx":28,"ny":28,"refTime":"2024-02-10T09:00:00:Z","depth":0,"parameterNumber":2,"parameterNumberName":"U-component_of_WINDS"},"data":[0,0,0,0,0,0,0,0,0,0,0,0,0,0,0,0,0,0,0,0,0,0,0,0,0,0,0,0,0,0,0,0,0,0,0,0,0,0,0,0,0,0,0,0,0,0,0,0,0,0,0,0,0,0,0,0,0,0,-1.0313,-1.0312,0,-1.031,-1.031,-1.0309,-1.0251,-1.0249,-1.0248,-1.0246,-1.0247,-1.0248,-1.025,0,0,0,0,0,0,0,0,0,0,0,0,0,-1.0271,-1.0272,-1.0313,-1.0312,-1.0312,-1.031,-1.031,-1.0309,-1.0251,-1.0249,-1.0248,-1.0246,-1.0246,-1.0248,-1.025,0,0,0,0,0,0,0,0,0,0,0,0,0,-1.0281,-1.0273,-1.0313,-1.0283,-1.028,-1.031,-1.031,-1.0309,-1.0252,-1.0249,-1.0247,-1.0245,-1.0246,-1.0248,-1.025,-1.0308,0,0,-1.0256,-1.0257,0,0,0,0,0,0,0,0,-1.0281,-1.0283,-1.0287,-1.0285,-1.0282,-1.0278,-1.0295,-1.0309,-1.0252,-1.0263,-1.0246,-1.0244,-1.0259,-1.026,-1.0265,-1.0308,-1.0308,-1.0257,-1.0258,-1.0259,-1.0259,0,0,0,0,0,0,0,-1.028,-1.0282,-1.0311,-1.0288,-1.0284,-1.0271,-1.027,-1.0297,-1.0274,-1.0262,-1.0257,-1.0258,-1.0257,-1.0263,-1.0264,-1.0308,-1.0256,-1.0258,-1.026,-1.026,-1.0401,-1.0404,0,0,0,0,0,0,-1.0283,-1.0282,-1.0311,-1.0311,-1.0276,-1.0274,-1.0272,-1.0282,-1.0273,-1.027,-1.0259,-1.0255,-1.026,-1.0262,-1.0264,-1.0332,-1.0259,-1.0261,-1.0262,-1.0399,-1.0402,-1.0404,0,0,0,0,0,0,-1.0282,-1.0286,-1.0312,-1.0296,-1.0298,-1.0277,-1.0288,-1.0283,-1.0288,-1.0272,-1.0268,-1.0269,-1.0259,-1.0261,-1.0298,-1.0331,-1.0262,-1.0264,-1.0396,-1.04,-1.0403,-1.0469,0,0,0,0,0,0,-1.0281,-1.0286,-1.0307,-1.0296,-1.0299,-1.0344,-1.029,-1.0285,-1.0292,-1.0285,-1.0279,-1.0276,-1.0257,-1.0295,-1.03,-1.0333,-1.0265,-1.0393,-1.0398,-1.0402,-1.0464,-1.0475,-1.0484,0,0,0,0,0,-1.028,-1.0326,-1.0308,-1.0312,-1.0324,-1.0346,-1.0348,-1.0323,-1.0294,-1.0316,-1.0306,-1.0277,-1.0327,-1.0299,-1.0304,-1.0339,-1.039,-1.0396,-1.0402,-1.0459,-1.0473,-1.0484,0,0,0,0,0,0,-1.0342,-1.0324,-1.0304,-1.0348,-1.0349,-1.0336,-1.0363,-1.0338,-1.0348,-1.0342,-1.0313,-1.0312,-1.0353,-1.035,-1.0319,-1.0395,-1.0354,-1.0361,-1.0396,-1.0408,-1.0418,-1.0418,-1.0267,0,0,0,0,0,-1.0361,-1.0379,-1.0363,-1.0403,-1.0405,-1.0384,-1.0392,-1.0374,-1.0374,-1.0374,-1.0367,-1.0369,-1.0385,-1.0397,-1.0411,-1.0463,-1.0462,-1.049,-1.05,-1.0508,-1.0514,-1.0543,-1.0555,-1.0423,-1.0423,-1.0422,0,0,-1.04,-1.0392,-1.0406,-1.0416,-1.0414,-1.0435,-1.0385,-1.0408,-1.0424,-1.0378,-1.0412,-1.0407,-1.0408,-1.0453,-1.0472,-1.0451,-1.0551,-1.0515,-1.0522,-1.0524,-1.055,-1.0563,-1.0574,-1.0426,-1.0426,-1.0425,0,0,-1.0481,-1.0477,-1.051,-1.051,-1.0508,-1.0494,-1.0503,-1.0494,-1.0488,-1.0522,-1.0488,-1.0507,-1.0536,-1.0538,-1.0543,-1.0627,-1.0601,-1.0633,-1.0685,-1.0713,-1.0724,-1.0733,-1.0763,-1.0775,-1.0639,-1.0639,-1.0639,0,-1.053,-1.0558,-1.0531,-1.0557,-1.0563,-1.0522,-1.0557,-1.0558,-1.0562,-1.0568,-1.0544,-1.0579,-1.0577,-1.0622,-1.0643,-1.0648,-1.0658,-1.0633,-1.0724,-1.0733,-1.0741,-1.077,-1.0782,-1.0643,-1.0643,-1.0642,-1.0642,0,-1.0619,-1.0639,-1.0667,-1.067,-1.068,-1.071,-1.0688,-1.0701,-1.0683,-1.0672,-1.0707,-1.0703,-1.0716,-1.0726,-1.0708,-1.077,-1.0757,-1.0729,-1.0686,-1.0758,-1.0785,-1.0796,-1.0649,-1.0647,-1.0646,-1.0645,0,0,-1.0738,-1.0727,-1.0737,-1.0739,-1.0735,-1.0751,-1.078,-1.0792,-1.0804,-1.0808,-1.0833,-1.0859,-1.0834,-1.0839,-1.0822,-1.0847,-1.0914,-1.0816,-1.0816,-1.0835,-1.0983,-1.1004,-1.1017,-1.0897,-1.0899,-1.0901,-1.0983,0,-1.0816,-1.0864,-1.0841,-1.0892,-1.0912,-1.0874,-1.09,-1.0901,-1.0893,-1.0909,-1.09,-1.0918,-1.0883,-1.0887,-1.091,-1.0901,-1.0944,-1.0895,-1.0921,-1.0922,-1.0922,-1.1031,-1.1052,-1.113,-1.0993,-1.0995,-1.0996,0,-1.0914,-1.0922,-1.0975,-1.0968,-1.0975,-1.0998,-1.1008,-1.1024,-1.1025,-1.1017,-1.1025,-1.1002,-1.1031,-1.099,-1.1031,-1.0999,-1.1009,-1.1006,-1.1009,-1.101,-1.0963,-1.1035,-1.1154,-1.1166,-1.1013,-1.1011,-1.101,0,-1.0996,-1.102,-1.1054,-1.1057,-1.105,-1.1067,-1.1066,-1.1065,-1.1074,-1.1083,-1.1089,-1.1102,-1.111,-1.1121,-1.1103,-1.1074,-1.1148,-1.1104,-1.1143,-1.1144,-1.1159,-1.1159,-1.1282,-1.1166,-1.1166,-1.1166,-1.1166,0,-1.1085,-1.1119,-1.1091,-1.1112,-1.115,-1.1124,-1.1163,-1.1157,-1.1157,-1.1178,-1.1147,-1.1168,-1.1142,-1.1161,-1.1148,-1.1185,-1.1189,-1.1184,-1.118,-1.1186,-1.1187,-1.1192,-1.1186,-1.1169,-1.1168,-1.1168,-1.1167,0,-1.1182,-1.1165,-1.12,-1.1191,-1.119,-1.1218,-1.1211,-1.1231,-1.1221,-1.1247,-1.1252,-1.1237,-1.1257,-1.1241,-1.1261,-1.1252,-1.1301,-1.129,-1.13,-1.1297,-1.1337,-1.1333,-1.1467,-1.1483,-1.1358,-1.1359,-1.136,0,-1.124,-1.1265,-1.1259,-1.127,-1.127,-1.1289,-1.1298,-1.1275,-1.1286,-1.129,-1.1311,-1.1328,-1.1341,-1.1376,-1.1368,-1.1384,-1.1372,-1.1418,-1.1374,-1.1381,-1.1373,-1.1372,-1.1375,-1.1427,-1.1428,-1.1429,-1.143,0,-1.1346,-1.1336,-1.1349,-1.1361,-1.1373,-1.1381,-1.1386,-1.1398,-1.1374,-1.1389,-1.1409,-1.1419,-1.144,-1.1458,-1.1472,-1.1471,-1.1448,-1.1444,-1.1454,-1.1461,-1.1466,-1.1464,-1.1324,-1.1441,-1.144,-1.1439,-1.1439,-1.1438,-1.1425,-1.1446,-1.1445,-1.1461,-1.1463,-1.147,-1.1489,-1.1481,-1.1497,-1.1511,-1.1497,-1.1522,-1.1525,-1.154,-1.1543,-1.1563,-1.1544,-1.1558,-1.1562,-1.1566,-1.1571,-1.1463,-1.1565,-1.1565,-1.1565,-1.1565,-1.1564,0,-1.1528,-1.1526,-1.1542,-1.1551,-1.1564,-1.154,-1.1546,-1.1559,-1.1581,-1.1585,-1.1599,-1.1623,-1.1641,-1.1635,-1.1651,-1.1669,-1.1659,-1.1674,-1.1673,-1.1673,-1.1587,-1.1577,-1.1682,-1.1682,-1.1682,-1.1682,-1.1682,-1.1682,-1.1584,-1.1618,-1.1609,-1.1644,-1.1642,-1.1665,-1.1671,-1.1677,-1.168,-1.1709,-1.1723,-1.1719,-1.1719,-1.1736,-1.1752,-1.175,-1.1758,-1.1777,-1.1771,-1.1691,-1.1679,-1.1668,-1.1658,-1.1779,-1.1779,-1.1856,-1.1856,-1.1857]},{"header":{"parameterUnit":"m.s-1","parameterCategory":1,"la1":30.2991,"la2":30.254,"lo1":-89.0895,"lo2":-89.0444,"dy":0.0017,"dx":0.0017,"nx":28,"ny":28,"refTime":"2024-02-10T09:00:00:Z","depth":0,"parameterNumber":3,"parameterNumberName":"V-component_of_WINDS"},"data":[0,0,0,0,0,0,0,0,0,0,0,0,0,0,0,0,0,0,0,0,0,0,0,0,0,0,0,0,0,0,0,0,0,0,0,0,0,0,0,0,0,0,0,0,0,0,0,0,0,0,0,0,0,0,0,0,0,0,-0.3276,-0.3276,0,-0.3237,-0.3237,-0.3236,-0.3207,-0.3207,-0.3206,-0.3206,-0.3167,-0.3166,-0.3165,0,0,0,0,0,0,0,0,0,0,0,0,0,-0.3324,-0.3323,-0.3276,-0.3276,-0.3275,-0.3237,-0.3237,-0.3236,-0.3207,-0.3207,-0.3206,-0.3206,-0.3167,-0.3166,-0.3165,0,0,0,0,0,0,0,0,0,0,0,0,0,-0.3296,-0.3323,-0.3276,-0.3256,-0.3254,-0.3237,-0.3237,-0.3236,-0.3207,-0.3207,-0.3206,-0.3206,-0.3167,-0.3166,-0.3165,-0.3165,0,0,-0.3161,-0.3161,0,0,0,0,0,0,0,0,-0.3298,-0.3294,-0.3259,-0.3257,-0.3255,-0.3226,-0.3239,-0.3212,-0.3207,-0.3225,-0.3206,-0.3206,-0.3187,-0.3184,-0.3178,-0.3164,-0.3162,-0.3161,-0.316,-0.316,-0.3159,0,0,0,0,0,0,0,-0.33,-0.3296,-0.3261,-0.3259,-0.3256,-0.3248,-0.3244,-0.3234,-0.3209,-0.3223,-0.3221,-0.3217,-0.3185,-0.3179,-0.3176,-0.3161,-0.3161,-0.316,-0.3159,-0.3159,-0.3145,-0.3145,0,0,0,0,0,0,-0.3305,-0.3298,-0.3262,-0.326,-0.3276,-0.3248,-0.3243,-0.3236,-0.3209,-0.3204,-0.3217,-0.3216,-0.3181,-0.3178,-0.3175,-0.3173,-0.316,-0.3159,-0.3158,-0.3144,-0.3145,-0.3145,0,0,0,0,0,0,-0.3306,-0.3302,-0.3264,-0.3278,-0.3272,-0.3248,-0.324,-0.3235,-0.3229,-0.3204,-0.3199,-0.3215,-0.3181,-0.3177,-0.3168,-0.3172,-0.3158,-0.3157,-0.3144,-0.3144,-0.3145,-0.3171,0,0,0,0,0,0,-0.3307,-0.3302,-0.3303,-0.3278,-0.3272,-0.3257,-0.324,-0.3235,-0.3227,-0.3224,-0.3201,-0.3197,-0.318,-0.317,-0.3167,-0.317,-0.3156,-0.3143,-0.3144,-0.3145,-0.317,-0.3172,-0.3174,0,0,0,0,0,-0.3309,-0.3312,-0.3303,-0.3299,-0.3272,-0.3258,-0.3254,-0.3235,-0.3227,-0.3227,-0.3211,-0.3197,-0.3171,-0.3169,-0.3165,-0.3168,-0.3143,-0.3144,-0.3145,-0.3168,-0.3172,-0.3174,0,0,0,0,0,0,-0.3338,-0.3308,-0.3298,-0.3293,-0.3278,-0.3253,-0.3252,-0.3239,-0.3226,-0.3224,-0.3201,-0.3196,-0.319,-0.3178,-0.3176,-0.3167,-0.3155,-0.3156,-0.3175,-0.3178,-0.318,-0.3183,-0.3155,0,0,0,0,0,-0.3344,-0.3335,-0.3309,-0.3307,-0.33,-0.3278,-0.3271,-0.3257,-0.3241,-0.3234,-0.3218,-0.3202,-0.319,-0.3183,-0.3171,-0.3167,-0.3161,-0.3167,-0.317,-0.3172,-0.3172,-0.3168,-0.3171,-0.3148,-0.3148,-0.3148,0,0,-0.3356,-0.3338,-0.3335,-0.3313,-0.33,-0.3291,-0.3273,-0.3264,-0.3257,-0.3233,-0.3224,-0.3211,-0.3192,-0.3185,-0.3181,-0.3175,-0.3177,-0.3173,-0.3175,-0.3174,-0.3169,-0.3172,-0.3174,-0.3148,-0.3148,-0.3148,0,0,-0.3373,-0.3359,-0.3356,-0.3343,-0.3323,-0.3307,-0.3306,-0.3282,-0.3273,-0.3263,-0.3244,-0.3235,-0.3216,-0.3203,-0.3194,-0.3204,-0.3191,-0.3201,-0.3214,-0.321,-0.3212,-0.3214,-0.3217,-0.3219,-0.3201,-0.3201,-0.3201,0,-0.3391,-0.3377,-0.3356,-0.3348,-0.3339,-0.3316,-0.3311,-0.33,-0.3277,-0.3271,-0.3264,-0.3238,-0.3224,-0.3213,-0.3216,-0.3209,-0.3207,-0.3204,-0.3213,-0.3215,-0.3216,-0.3219,-0.322,-0.3202,-0.3202,-0.3202,-0.3202,0,-0.3399,-0.3389,-0.3389,-0.3367,-0.3357,-0.3352,-0.3329,-0.3322,-0.3309,-0.3294,-0.3283,-0.3265,-0.3248,-0.3244,-0.3232,-0.3232,-0.3229,-0.3218,-0.3206,-0.322,-0.3222,-0.3223,-0.3204,-0.3204,-0.3203,-0.3203,0,0,-0.3435,-0.34,-0.34,-0.339,-0.3365,-0.3357,-0.335,-0.3333,-0.3327,-0.3312,-0.3305,-0.3288,-0.3277,-0.3267,-0.3252,-0.3249,-0.3258,-0.3239,-0.3238,-0.3243,-0.3256,-0.3265,-0.3267,-0.3249,-0.3249,-0.3249,-0.3258,0,-0.3448,-0.3434,-0.3414,-0.3407,-0.3397,-0.3374,-0.3368,-0.3352,-0.3337,-0.3327,-0.331,-0.3299,-0.3286,-0.3279,-0.3275,-0.3258,-0.326,-0.3257,-0.3242,-0.3241,-0.3248,-0.3268,-0.3277,-0.3287,-0.3259,-0.3259,-0.3259,0,-0.3463,-0.3448,-0.3439,-0.3415,-0.341,-0.3404,-0.3387,-0.3377,-0.3358,-0.3348,-0.3335,-0.3319,-0.3309,-0.3298,-0.3284,-0.3282,-0.3274,-0.3265,-0.3265,-0.3263,-0.3252,-0.3267,-0.329,-0.3291,-0.326,-0.326,-0.326,0,-0.3489,-0.3468,-0.3459,-0.3451,-0.3422,-0.3418,-0.3406,-0.3386,-0.3377,-0.3362,-0.3356,-0.3339,-0.333,-0.3318,-0.3297,-0.3291,-0.3285,-0.3272,-0.3276,-0.3276,-0.3276,-0.3277,-0.3298,-0.3271,-0.3271,-0.3271,-0.3271,0,-0.3507,-0.3503,-0.3471,-0.3466,-0.346,-0.3436,-0.3431,-0.3417,-0.3399,-0.339,-0.3369,-0.3362,-0.3335,-0.3323,-0.3307,-0.3298,-0.3294,-0.3285,-0.3281,-0.3287,-0.3288,-0.3282,-0.3281,-0.3271,-0.3271,-0.3271,-0.3271,0,-0.3536,-0.3515,-0.3505,-0.3478,-0.347,-0.3467,-0.3444,-0.3438,-0.3421,-0.3411,-0.3407,-0.3381,-0.3367,-0.3344,-0.3324,-0.3312,-0.3306,-0.3299,-0.3313,-0.331,-0.3315,-0.3315,-0.3334,-0.3335,-0.3306,-0.3307,-0.3307,0,-0.3549,-0.3545,-0.3518,-0.351,-0.3499,-0.3487,-0.3477,-0.3454,-0.3444,-0.3421,-0.3418,-0.3402,-0.3388,-0.3366,-0.3345,-0.3329,-0.3321,-0.3329,-0.3319,-0.3325,-0.3321,-0.3322,-0.3321,-0.3332,-0.3332,-0.3332,-0.3333,0,-0.3574,-0.3564,-0.3551,-0.3534,-0.3523,-0.3508,-0.3493,-0.3488,-0.346,-0.3451,-0.3436,-0.3425,-0.3403,-0.3387,-0.3368,-0.3354,-0.3339,-0.3336,-0.3336,-0.3343,-0.3351,-0.3346,-0.3319,-0.3336,-0.3335,-0.3335,-0.3335,-0.3335,-0.3596,-0.3591,-0.3571,-0.3556,-0.3542,-0.3528,-0.3521,-0.3503,-0.349,-0.347,-0.3457,-0.3442,-0.3422,-0.3394,-0.3381,-0.3369,-0.3363,-0.3363,-0.3363,-0.3363,-0.3365,-0.3352,-0.3366,-0.3365,-0.3365,-0.3365,-0.3365,0,-0.362,-0.3605,-0.3593,-0.3571,-0.356,-0.3546,-0.3527,-0.3519,-0.3507,-0.3489,-0.3475,-0.3457,-0.3441,-0.3419,-0.3401,-0.3396,-0.3388,-0.3392,-0.3392,-0.3389,-0.3372,-0.3374,-0.3398,-0.3398,-0.3398,-0.3398,-0.3398,-0.3398,-0.3631,-0.3622,-0.3609,-0.3592,-0.3577,-0.3563,-0.3553,-0.354,-0.3525,-0.3506,-0.3493,-0.3478,-0.3458,-0.3439,-0.3423,-0.3417,-0.3411,-0.3417,-0.3409,-0.3394,-0.3391,-0.3388,-0.339,-0.3416,-0.3416,-0.3427,-0.3427,-0.3427]}]]